TAM3895 SBCY-SBBR

Flight info

Callsign TAM3895
Flight time 1h 16m
Altitude 35000
Route TORAB UZ8 MABMA DCT UBSUS
Aircraft A321/M-SDE3FGHIRWY/LB1

Departure

Time 2026-04-20 00:18
Airport Várzea Grande–Marechal Rondon International Airport (SBCY)

Arrival

Time 2026-04-20 01:35
Airport Presidente Juscelino Kubitschek International Airport (SBBR)
Time Latitude Longitude Altitude Speed Heading
2026-04-19 23:51 -15.64955 -56.12030 615 ft 0 kts 243°
2026-04-20 00:07 -15.64953 -56.12026 614 ft 2 kts 243°
2026-04-20 00:07 -15.64949 -56.12017 614 ft 2 kts 239°
2026-04-20 00:08 -15.64938 -56.12006 614 ft 2 kts 207°
2026-04-20 00:08 -15.64924 -56.12002 614 ft 2 kts 183°
2026-04-20 00:08 -15.64909 -56.12003 615 ft 1 kts 159°
2026-04-20 00:08 -15.64903 -56.12006 615 ft 1 kts 149°
2026-04-20 00:09 -15.64900 -56.12008 615 ft 0 kts 152°
2026-04-20 00:13 -15.64905 -56.12005 615 ft 1 kts 152°
2026-04-20 00:13 -15.64924 -56.11995 614 ft 4 kts 151°
2026-04-20 00:14 -15.64958 -56.11976 613 ft 6 kts 152°
2026-04-20 00:14 -15.65007 -56.11950 612 ft 9 kts 153°
2026-04-20 00:14 -15.65071 -56.11917 611 ft 9 kts 154°
2026-04-20 00:14 -15.65085 -56.11883 610 ft 7 kts 83°
2026-04-20 00:15 -15.65067 -56.11808 609 ft 13 kts 90°
2026-04-20 00:15 -15.65150 -56.11735 606 ft 20 kts 156°
2026-04-20 00:15 -15.65289 -56.11673 604 ft 22 kts 155°
2026-04-20 00:15 -15.65425 -56.11601 601 ft 21 kts 153°
2026-04-20 00:16 -15.65560 -56.11530 600 ft 21 kts 153°
2026-04-20 00:16 -15.65692 -56.11462 598 ft 20 kts 152°
2026-04-20 00:16 -15.65818 -56.11394 598 ft 19 kts 152°
2026-04-20 00:16 -15.65953 -56.11321 597 ft 26 kts 152°
2026-04-20 00:17 -15.66134 -56.11220 595 ft 27 kts 139°
2026-04-20 00:17 -15.66215 -56.11176 594 ft 10 kts 262°
2026-04-20 00:17 -15.66208 -56.11187 594 ft 0 kts 336°
2026-04-20 00:17 -15.65965 -56.11314 597 ft 80 kts 332°
2026-04-20 00:18 -15.65232 -56.11702 606 ft 152 kts 333°
2026-04-20 00:18 -15.64183 -56.12252 1084 ft 170 kts 333°
2026-04-20 00:18 -15.63197 -56.12766 2037 ft 156 kts 334°
2026-04-20 00:18 -15.62280 -56.13261 2718 ft 147 kts 334°
2026-04-20 00:19 -15.61354 -56.13779 2959 ft 157 kts 335°
2026-04-20 00:19 -15.60345 -56.14318 3191 ft 170 kts 336°
2026-04-20 00:19 -15.59207 -56.14792 3448 ft 181 kts 356°
2026-04-20 00:19 -15.57974 -56.14496 3722 ft 191 kts 34°
2026-04-20 00:20 -15.57142 -56.13389 3990 ft 206 kts 71°
2026-04-20 00:20 -15.57161 -56.11856 4253 ft 227 kts 106°
2026-04-20 00:20 -15.57702 -56.10258 4625 ft 241 kts 99°
2026-04-20 00:20 -15.57683 -56.08497 4958 ft 252 kts 79°
2026-04-20 00:21 -15.57597 -56.06628 5330 ft 269 kts 98°
2026-04-20 00:21 -15.58320 -56.04829 5938 ft 277 kts 120°
2026-04-20 00:21 -15.59281 -56.03123 6595 ft 277 kts 112°
2026-04-20 00:21 -15.60036 -56.01281 7214 ft 279 kts 110°
2026-04-20 00:22 -15.60758 -55.99410 7809 ft 283 kts 110°
2026-04-20 00:22 -15.61499 -55.97543 8374 ft 286 kts 111°
2026-04-20 00:22 -15.62289 -55.95612 8940 ft 289 kts 112°
2026-04-20 00:22 -15.63098 -55.93677 9479 ft 293 kts 112°
2026-04-20 00:23 -15.63917 -55.91747 9998 ft 296 kts 113°
2026-04-20 00:23 -15.64766 -55.89762 10354 ft 306 kts 113°
2026-04-20 00:23 -15.65646 -55.87714 10590 ft 319 kts 113°
2026-04-20 00:23 -15.66582 -55.85540 10825 ft 333 kts 113°
2026-04-20 00:24 -15.67543 -55.83310 11108 ft 344 kts 113°
2026-04-20 00:24 -15.68524 -55.81034 11573 ft 348 kts 113°
2026-04-20 00:24 -15.69501 -55.78768 12076 ft 350 kts 113°
2026-04-20 00:24 -15.70501 -55.76449 12571 ft 353 kts 113°
2026-04-20 00:25 -15.71502 -55.74126 13045 ft 355 kts 113°
2026-04-20 00:25 -15.72509 -55.71787 13518 ft 358 kts 113°
2026-04-20 00:25 -15.73531 -55.69413 14008 ft 359 kts 113°
2026-04-20 00:25 -15.74542 -55.67061 14490 ft 360 kts 114°
2026-04-20 00:26 -15.75567 -55.64680 14963 ft 362 kts 114°
2026-04-20 00:26 -15.76592 -55.62294 15419 ft 363 kts 114°
2026-04-20 00:26 -15.77629 -55.59883 15852 ft 365 kts 114°
2026-04-20 00:26 -15.78663 -55.57477 16276 ft 366 kts 114°
2026-04-20 00:27 -15.79693 -55.55079 16683 ft 368 kts 114°
2026-04-20 00:27 -15.80731 -55.52660 17085 ft 369 kts 114°
2026-04-20 00:27 -15.81787 -55.50201 17483 ft 370 kts 114°
2026-04-20 00:27 -15.82826 -55.47779 17865 ft 372 kts 114°
2026-04-20 00:28 -15.83880 -55.45318 18246 ft 374 kts 114°
2026-04-20 00:28 -15.84948 -55.42824 18609 ft 376 kts 114°
2026-04-20 00:28 -15.86011 -55.40343 18970 ft 378 kts 115°
2026-04-20 00:28 -15.87079 -55.37849 19314 ft 380 kts 115°
2026-04-20 00:29 -15.88151 -55.35346 19637 ft 383 kts 115°
2026-04-20 00:29 -15.89249 -55.32775 19970 ft 386 kts 115°
2026-04-20 00:29 -15.90332 -55.30230 20281 ft 389 kts 115°
2026-04-20 00:29 -15.91428 -55.27659 20601 ft 391 kts 115°
2026-04-20 00:30 -15.92545 -55.25044 20922 ft 393 kts 115°
2026-04-20 00:30 -15.93642 -55.22474 21231 ft 396 kts 115°
2026-04-20 00:30 -15.94764 -55.19850 21538 ft 398 kts 115°
2026-04-20 00:30 -15.95894 -55.17207 21834 ft 401 kts 115°
2026-04-20 00:31 -15.97010 -55.14528 22121 ft 404 kts 114°
2026-04-20 00:31 -15.97983 -55.11812 22416 ft 406 kts 111°
2026-04-20 00:31 -15.98895 -55.09002 22699 ft 409 kts 111°
2026-04-20 00:31 -15.99791 -55.06208 22974 ft 411 kts 110°
2026-04-20 00:32 -16.00697 -55.03378 23228 ft 414 kts 110°
2026-04-20 00:32 -16.01600 -55.00553 23484 ft 416 kts 110°
2026-04-20 00:32 -16.02524 -54.97670 23763 ft 418 kts 110°
2026-04-20 00:32 -16.03435 -54.94829 24031 ft 420 kts 110°
2026-04-20 00:33 -16.04367 -54.91924 24281 ft 422 kts 110°
2026-04-20 00:33 -16.05292 -54.89035 24515 ft 425 kts 110°
2026-04-20 00:33 -16.06229 -54.86105 24744 ft 427 kts 110°
2026-04-20 00:33 -16.07165 -54.83184 24974 ft 429 kts 110°
2026-04-20 00:34 -16.08102 -54.80257 25190 ft 432 kts 110°
2026-04-20 00:34 -16.09058 -54.77267 25418 ft 434 kts 110°
2026-04-20 00:34 -16.10013 -54.74283 25647 ft 436 kts 110°
2026-04-20 00:34 -16.10976 -54.71294 25856 ft 438 kts 111°
2026-04-20 00:35 -16.11945 -54.68301 26144 ft 438 kts 111°
2026-04-20 00:35 -16.12915 -54.65295 26486 ft 437 kts 111°
2026-04-20 00:35 -16.13873 -54.62309 26713 ft 439 kts 110°
2026-04-20 00:35 -16.14840 -54.59285 26908 ft 442 kts 111°
2026-04-20 00:36 -16.15804 -54.56258 27113 ft 444 kts 110°
2026-04-20 00:36 -16.16769 -54.53229 27324 ft 446 kts 110°
2026-04-20 00:36 -16.17748 -54.50147 27528 ft 448 kts 110°
2026-04-20 00:36 -16.18719 -54.47089 27729 ft 450 kts 110°
2026-04-20 00:37 -16.19710 -54.43963 27931 ft 452 kts 110°
2026-04-20 00:37 -16.20692 -54.40863 28120 ft 454 kts 110°
2026-04-20 00:37 -16.21670 -54.37778 28299 ft 456 kts 111°
2026-04-20 00:37 -16.22705 -54.34629 28475 ft 457 kts 112°
2026-04-20 00:38 -16.23871 -54.31534 28663 ft 458 kts 114°
2026-04-20 00:38 -16.25065 -54.28471 28861 ft 460 kts 115°
2026-04-20 00:38 -16.26273 -54.25399 28976 ft 463 kts 115°
2026-04-20 00:39 -16.28735 -54.19130 29151 ft 471 kts 115°
2026-04-20 00:39 -16.31206 -54.12815 29407 ft 477 kts 115°
2026-04-20 00:39 -16.32453 -54.09620 29605 ft 478 kts 115°
2026-04-20 00:40 -16.33708 -54.06404 29798 ft 479 kts 115°
2026-04-20 00:40 -16.34969 -54.03163 29986 ft 480 kts 115°
2026-04-20 00:40 -16.36225 -53.99943 30223 ft 480 kts 115°
2026-04-20 00:40 -16.37469 -53.96743 30500 ft 479 kts 115°
2026-04-20 00:41 -16.38702 -53.93574 30773 ft 478 kts 115°
2026-04-20 00:41 -16.39947 -53.90371 31058 ft 476 kts 115°
2026-04-20 00:41 -16.41185 -53.87183 31329 ft 475 kts 115°
2026-04-20 00:41 -16.42419 -53.84004 31592 ft 475 kts 115°
2026-04-20 00:42 -16.43651 -53.80830 31859 ft 474 kts 115°
2026-04-20 00:42 -16.44895 -53.77622 32129 ft 473 kts 115°
2026-04-20 00:42 -16.46125 -53.74449 32386 ft 473 kts 115°
2026-04-20 00:42 -16.47338 -53.71320 32631 ft 472 kts 116°
2026-04-20 00:43 -16.48566 -53.68145 32904 ft 471 kts 116°
2026-04-20 00:43 -16.49790 -53.64984 33183 ft 471 kts 116°
2026-04-20 00:43 -16.51013 -53.61825 33446 ft 470 kts 116°
2026-04-20 00:43 -16.52246 -53.58641 33649 ft 471 kts 116°
2026-04-20 00:44 -16.53468 -53.55489 33815 ft 472 kts 116°
2026-04-20 00:44 -16.54687 -53.52346 33991 ft 473 kts 116°
2026-04-20 00:44 -16.55926 -53.49144 34175 ft 474 kts 116°
2026-04-20 00:44 -16.57142 -53.45996 34349 ft 474 kts 116°
2026-04-20 00:45 -16.58383 -53.42777 34517 ft 475 kts 115°
2026-04-20 00:45 -16.59604 -53.39609 34680 ft 476 kts 115°
2026-04-20 00:45 -16.60851 -53.36372 34836 ft 477 kts 115°
2026-04-20 00:45 -16.62067 -53.33206 34988 ft 478 kts 115°
2026-04-20 00:46 -16.63305 -53.29970 34995 ft 479 kts 115°
2026-04-20 00:46 -16.65773 -53.23523 35000 ft 479 kts 115°
2026-04-20 00:47 -16.68242 -53.17083 35000 ft 480 kts 115°
2026-04-20 00:47 -16.70308 -53.10484 34997 ft 483 kts 108°
2026-04-20 00:48 -16.71636 -53.03596 34997 ft 486 kts 101°
2026-04-20 00:48 -16.72400 -52.96607 34994 ft 487 kts 99°
2026-04-20 00:49 -16.73117 -52.89595 34999 ft 487 kts 99°
2026-04-20 00:49 -16.73845 -52.82589 35004 ft 487 kts 99°
2026-04-20 00:50 -16.74580 -52.75604 35003 ft 487 kts 99°
2026-04-20 00:50 -16.75320 -52.68571 35009 ft 488 kts 99°
2026-04-20 00:51 -16.76049 -52.61601 35010 ft 488 kts 99°
2026-04-20 00:51 -16.76785 -52.54571 35015 ft 488 kts 99°
2026-04-20 00:52 -16.77519 -52.47520 35022 ft 488 kts 99°
2026-04-20 00:52 -16.78247 -52.40509 35024 ft 489 kts 99°
2026-04-20 00:53 -16.78975 -52.33460 35022 ft 488 kts 99°
2026-04-20 00:53 -16.79696 -52.26422 35030 ft 489 kts 99°
2026-04-20 00:54 -16.80416 -52.19392 35033 ft 489 kts 99°
2026-04-20 00:54 -16.81134 -52.12381 35035 ft 488 kts 99°
2026-04-20 00:55 -16.81852 -52.05346 35038 ft 488 kts 99°
2026-04-20 00:55 -16.82567 -51.98314 35039 ft 488 kts 99°
2026-04-20 00:56 -16.83278 -51.91299 35039 ft 489 kts 99°
2026-04-20 00:56 -16.83992 -51.84246 35042 ft 490 kts 99°
2026-04-20 00:57 -16.84703 -51.77169 35042 ft 491 kts 99°
2026-04-20 00:57 -16.85414 -51.70089 35040 ft 490 kts 99°
2026-04-20 00:58 -16.86120 -51.63034 35039 ft 490 kts 99°
2026-04-20 00:58 -16.86825 -51.55956 35039 ft 490 kts 99°
2026-04-20 00:59 -16.87528 -51.48877 35035 ft 491 kts 99°
2026-04-20 00:59 -16.88230 -51.41783 35036 ft 491 kts 99°
2026-04-20 01:00 -16.88926 -51.34710 35033 ft 491 kts 99°
2026-04-20 01:00 -16.89621 -51.27611 35029 ft 492 kts 99°
2026-04-20 01:01 -16.90309 -51.20547 35030 ft 492 kts 99°
2026-04-20 01:01 -16.91002 -51.13434 35036 ft 493 kts 99°
2026-04-20 01:02 -16.91691 -51.06334 35040 ft 493 kts 99°
2026-04-20 01:02 -16.92378 -50.99243 35046 ft 493 kts 99°
2026-04-20 01:03 -16.93068 -50.92097 35054 ft 494 kts 99°
2026-04-20 01:03 -16.93755 -50.84955 35061 ft 495 kts 99°
2026-04-20 01:04 -16.94439 -50.77797 35061 ft 494 kts 99°
2026-04-20 01:04 -16.95119 -50.70683 35059 ft 494 kts 99°
2026-04-20 01:05 -16.95797 -50.63546 35057 ft 495 kts 99°
2026-04-20 01:05 -16.96472 -50.56420 35057 ft 495 kts 99°
2026-04-20 01:06 -16.97147 -50.49265 35054 ft 495 kts 99°
2026-04-20 01:06 -16.97817 -50.42133 35053 ft 495 kts 99°
2026-04-20 01:07 -16.98486 -50.34988 35050 ft 495 kts 99°
2026-04-20 01:07 -16.99150 -50.27848 35047 ft 496 kts 98°
2026-04-20 01:08 -16.99814 -50.20683 35046 ft 496 kts 98°
2026-04-20 01:08 -17.00479 -50.13490 35046 ft 496 kts 98°
2026-04-20 01:09 -17.01137 -50.06356 35047 ft 496 kts 98°
2026-04-20 01:09 -17.01796 -49.99187 35047 ft 496 kts 99°
2026-04-20 01:10 -17.02449 -49.92070 35047 ft 491 kts 99°
2026-04-20 01:10 -17.02820 -49.81363 35040 ft 496 kts 85°
2026-04-20 01:11 -17.01115 -49.74401 34593 ft 499 kts 69°
2026-04-20 01:11 -16.99623 -49.71174 34103 ft 497 kts 60°
2026-04-20 01:11 -16.97736 -49.68153 33502 ft 494 kts 53°
2026-04-20 01:12 -16.95695 -49.65296 32819 ft 494 kts 52°
2026-04-20 01:12 -16.93587 -49.62419 32116 ft 495 kts 52°
2026-04-20 01:12 -16.91509 -49.59566 31450 ft 495 kts 52°
2026-04-20 01:12 -16.89434 -49.56694 30783 ft 495 kts 53°
2026-04-20 01:13 -16.87400 -49.53857 30141 ft 495 kts 53°
2026-04-20 01:13 -16.85336 -49.50966 29472 ft 494 kts 53°
2026-04-20 01:13 -16.83287 -49.48089 28850 ft 492 kts 53°
2026-04-20 01:13 -16.81263 -49.45246 28486 ft 488 kts 53°
2026-04-20 01:14 -16.79251 -49.42420 28099 ft 485 kts 53°
2026-04-20 01:14 -16.77258 -49.39624 27710 ft 481 kts 53°
2026-04-20 01:14 -16.75266 -49.36827 27297 ft 477 kts 53°
2026-04-20 01:14 -16.73297 -49.34063 26899 ft 473 kts 53°
2026-04-20 01:15 -16.71334 -49.31296 26498 ft 469 kts 53°
2026-04-20 01:15 -16.69408 -49.28580 26092 ft 465 kts 53°
2026-04-20 01:15 -16.67490 -49.25885 25682 ft 461 kts 53°
2026-04-20 01:15 -16.65565 -49.23186 25253 ft 458 kts 53°
2026-04-20 01:16 -16.63703 -49.20522 24820 ft 454 kts 56°
2026-04-20 01:16 -16.61923 -49.17811 24403 ft 450 kts 56°
2026-04-20 01:16 -16.60189 -49.15143 23988 ft 446 kts 57°
2026-04-20 01:16 -16.58467 -49.12489 23576 ft 442 kts 57°
2026-04-20 01:17 -16.56734 -49.09817 23161 ft 438 kts 57°
2026-04-20 01:17 -16.55043 -49.07212 22763 ft 434 kts 57°
2026-04-20 01:17 -16.53371 -49.04642 22352 ft 431 kts 57°
2026-04-20 01:17 -16.51679 -49.02039 21936 ft 427 kts 57°
2026-04-20 01:18 -16.50030 -48.99504 21510 ft 424 kts 57°
2026-04-20 01:18 -16.48374 -48.96960 21041 ft 421 kts 57°
2026-04-20 01:18 -16.46749 -48.94465 20600 ft 418 kts 57°
2026-04-20 01:18 -16.45123 -48.91969 20140 ft 415 kts 56°
2026-04-20 01:19 -16.43500 -48.89477 19686 ft 412 kts 56°
2026-04-20 01:19 -16.41898 -48.87020 19246 ft 409 kts 56°
2026-04-20 01:19 -16.40322 -48.84603 18815 ft 406 kts 56°
2026-04-20 01:19 -16.38729 -48.82162 18361 ft 403 kts 56°
2026-04-20 01:20 -16.37151 -48.79744 17907 ft 400 kts 56°
2026-04-20 01:20 -16.35596 -48.77362 17455 ft 398 kts 56°
2026-04-20 01:20 -16.34055 -48.75001 17010 ft 395 kts 56°
2026-04-20 01:20 -16.32505 -48.72630 16563 ft 393 kts 56°
2026-04-20 01:21 -16.30989 -48.70310 16116 ft 390 kts 56°
2026-04-20 01:21 -16.29460 -48.67972 15672 ft 388 kts 56°
2026-04-20 01:21 -16.27955 -48.65671 15468 ft 377 kts 56°
2026-04-20 01:21 -16.26516 -48.63471 15389 ft 364 kts 56°
2026-04-20 01:22 -16.25130 -48.61329 15303 ft 351 kts 59°
2026-04-20 01:22 -16.24051 -48.59082 15181 ft 339 kts 69°
2026-04-20 01:22 -16.23369 -48.56764 14730 ft 339 kts 76°
2026-04-20 01:22 -16.22819 -48.54393 14302 ft 339 kts 77°
2026-04-20 01:23 -16.22278 -48.51982 13879 ft 339 kts 77°
2026-04-20 01:23 -16.21738 -48.49610 13466 ft 338 kts 77°
2026-04-20 01:23 -16.21190 -48.47241 13054 ft 337 kts 77°
2026-04-20 01:23 -16.20642 -48.44905 12648 ft 336 kts 77°
2026-04-20 01:24 -16.20086 -48.42547 12229 ft 335 kts 77°
2026-04-20 01:24 -16.19527 -48.40190 11808 ft 335 kts 76°
2026-04-20 01:24 -16.18973 -48.37855 11394 ft 334 kts 76°
2026-04-20 01:24 -16.18414 -48.35504 10972 ft 333 kts 77°
2026-04-20 01:25 -16.17864 -48.33186 10552 ft 332 kts 76°
2026-04-20 01:25 -16.17309 -48.30841 10132 ft 331 kts 77°
2026-04-20 01:25 -16.16770 -48.28558 10040 ft 319 kts 77°
2026-04-20 01:25 -16.16257 -48.26377 9981 ft 306 kts 77°
2026-04-20 01:26 -16.15738 -48.24220 9553 ft 301 kts 73°
2026-04-20 01:26 -16.14773 -48.22360 9142 ft 292 kts 45°
2026-04-20 01:26 -16.13077 -48.21298 8843 ft 285 kts 16°
2026-04-20 01:26 -16.11144 -48.20920 8539 ft 282 kts
2026-04-20 01:27 -16.09207 -48.20644 8220 ft 280 kts 10°
2026-04-20 01:27 -16.07260 -48.20292 7895 ft 278 kts 12°
2026-04-20 01:27 -16.05373 -48.19876 7578 ft 277 kts 14°
2026-04-20 01:27 -16.03509 -48.19424 7261 ft 276 kts 15°
2026-04-20 01:28 -16.01645 -48.18953 6943 ft 275 kts 15°
2026-04-20 01:28 -15.99779 -48.18498 6592 ft 270 kts 11°
2026-04-20 01:28 -15.97937 -48.18356 6286 ft 261 kts
2026-04-20 01:28 -15.96131 -48.18456 6011 ft 257 kts 358°
2026-04-20 01:29 -15.94358 -48.18508 5670 ft 255 kts 11°
2026-04-20 01:29 -15.92848 -48.17728 5532 ft 238 kts 49°
2026-04-20 01:29 -15.91983 -48.16324 5592 ft 222 kts 62°
2026-04-20 01:29 -15.91272 -48.14984 5594 ft 205 kts 61°
2026-04-20 01:30 -15.90592 -48.13746 5527 ft 188 kts 60°
2026-04-20 01:30 -15.89968 -48.12623 5489 ft 170 kts 63°
2026-04-20 01:30 -15.89506 -48.11512 5549 ft 166 kts 72°
2026-04-20 01:30 -15.89223 -48.10344 5409 ft 167 kts 79°
2026-04-20 01:31 -15.89066 -48.09161 5312 ft 166 kts 84°
2026-04-20 01:31 -15.88965 -48.07959 5272 ft 165 kts 85°
2026-04-20 01:31 -15.88886 -48.06777 5255 ft 165 kts 85°
2026-04-20 01:31 -15.88810 -48.05576 5254 ft 165 kts 85°
2026-04-20 01:32 -15.88735 -48.04390 5271 ft 165 kts 85°
2026-04-20 01:32 -15.88660 -48.03202 5196 ft 165 kts 86°
2026-04-20 01:32 -15.88583 -48.02011 4988 ft 165 kts 86°
2026-04-20 01:32 -15.88506 -48.00816 4777 ft 164 kts 85°
2026-04-20 01:33 -15.88430 -47.99645 4573 ft 163 kts 85°
2026-04-20 01:33 -15.88355 -47.98469 4363 ft 163 kts 86°
2026-04-20 01:33 -15.88280 -47.97303 4159 ft 162 kts 85°
2026-04-20 01:33 -15.88204 -47.96132 3948 ft 162 kts 85°
2026-04-20 01:34 -15.88130 -47.94963 3747 ft 161 kts 85°
2026-04-20 01:34 -15.88058 -47.93816 3540 ft 156 kts 85°
2026-04-20 01:34 -15.87987 -47.92770 3482 ft 127 kts 86°
2026-04-20 01:34 -15.87942 -47.92097 3454 ft 57 kts 88°
2026-04-20 01:35 -15.87884 -47.91835 3449 ft 21 kts 64°
2026-04-20 01:35 -15.87838 -47.91750 3451 ft 10 kts 57°
2026-04-20 01:35 -15.87803 -47.91697 3452 ft 7 kts 55°
2026-04-20 01:35 -15.87773 -47.91654 3452 ft 8 kts 55°
2026-04-20 01:36 -15.87712 -47.91564 3453 ft 19 kts 36°
2026-04-20 01:36 -15.87607 -47.91556 3461 ft 11 kts 352°
2026-04-20 01:36 -15.87538 -47.91563 3465 ft 11 kts 357°
2026-04-20 01:36 -15.87393 -47.91571 3474 ft 23 kts 356°
2026-04-20 01:37 -15.87306 -47.91605 3475 ft 10 kts 282°
2026-04-20 01:37 -15.87310 -47.91679 3476 ft 9 kts 266°
2026-04-20 01:37 -15.87313 -47.91736 3478 ft 5 kts 266°
2026-04-20 01:37 -15.87303 -47.91753 3478 ft 2 kts 340°
2026-04-20 01:38 -15.87278 -47.91756 3479 ft 5 kts 355°
2026-04-20 01:38 -15.87257 -47.91758 3479 ft 1 kts 355°
2026-04-20 01:38 -15.87254 -47.91758 3480 ft 0 kts 355°